Regional Weather Roundup
Issued by NWS

Home | Current Version | Previous Version | Graphics & Text | Print | Product List | Glossary On
Versions: 1 2 3 4 5 6 7 8 9 10 11 12 13 14 15 16 17 18 19 20 21 22 23 24 25 26 27 28 29 30 31 32 33 34 35 36 37 38 39 40 41 42 43 44 45 46 47 48 49 50
000
ASUS43 KDMX 041907
RWRIA

WEATHER ROUNDUP FOR IOWA
NATIONAL WEATHER SERVICE DES MOINES IA
200 PM CDT TUE AUG 04 2015

NOTE: "FAIR" INDICATES FEW OR NO CLOUDS BELOW 12,000 FEET WITH NO
SIGNIFICANT WEATHER AND/OR OBSTRUCTIONS TO VISIBILITY.

* - THESE STATIONS ARE NOT NWS STATIONS...THUS NOT UNDER NWS
QUALITY CONTROL.  THEY ALSO DO NOT REPORT WEATHER SUCH
AS PRECIPITATION OR FOG.

IAZ001>003-012>014-020>022-031>034-043>046-042000-
   NORTHWEST IOWA

CITY           SKY/WX    TMP DP  RH WIND       PRES   REMARKS
CARROLL *      SUNNY     73  64  73 E12       29.96F
CHEROKEE *     PTSUNNY   77  64  65 E9        29.96F
DENISON *      SUNNY     73  64  73 E9        29.93F
LE MARS *      SUNNY     77  63  61 E8        29.97R
ORANGE CITY *  SUNNY     75  63  64 E10G16    29.98R
SHELDON *      SUNNY     75  61  60 SE10      29.99R
SIOUX CITY     CLOUDY    77  64  64 SE9       29.95R
SPENCER        PTSUNNY   77  57  50 SE12      30.00F
STORM LAKE *   SUNNY     75  61  60 E10G16    29.98F
$$

IAZ055>058-069>071-079>083-090>094-042000-
   SOUTHWEST IOWA

CITY           SKY/WX    TMP DP  RH WIND       PRES   REMARKS
ATLANTIC *     SUNNY     73  64  73 SE8G15    29.96F
AUDUBON *      SUNNY     75  64  69 E9        29.96S
CLARINDA *     SUNNY     75  70  83 SE6       29.98F
COUNCIL BLFS * SUNNY     72  64  78 SE12      29.96S
CRESTON *      MOSUNNY   70  66  88 SE12      30.00F
HARLAN  *      SUNNY     72  72 100 SE6       29.99R
LAMONI         CLOUDY    76  66  71 CALM      30.00F
RED OAK *      SUNNY     75  68  78 SE12      29.96F
SHENANDOAH *   SUNNY     77  70  78 S8G14     29.96F
$$

IAZ047>049-059>061-072>074-084-042000-
   CENTRAL IOWA

CITY           SKY/WX    TMP DP  RH WIND       PRES   REMARKS
AMES           CLOUDY    76  61  59 CALM      30.00F
ANKENY *       CLOUDY    75  64  69 NE5       29.98F
CHARITON *     SUNNY     73  61  64 CALM      30.01S
DES MOINES     CLOUDY    77  59  53 E6        29.99F
GRINNELL*      CLOUDY    75  61  60 CALM      30.02F
KNOXVILLE *    SUNNY     75  61  60 NE7       29.99F
MARSHALLTOWN   CLOUDY    76  60  57 CALM      30.02F
PELLA *        CLOUDY    77  66  69 NE5       30.00F
PERRY *          N/A     75  64  69 E9        29.97F
$$

IAZ004>006-015-016-023>025-035-036-042000-
   NORTH CENTRAL IOWA

CITY           SKY/WX    TMP DP  RH WIND       PRES   REMARKS
ALGONA *       SUNNY     77  55  47 S9        30.02F
CLARION *      SUNNY     75  57  53 CALM      30.02F
ESTHERVILLE    PTSUNNY   74  54  49 SE8       30.01F
FORT DODGE *   CLOUDY    77  61  57 E6        30.01F
FOREST CITY *  SUNNY     73  52  46 SE6       30.03F
IOWA FALLS *     N/A     77  57  50 SE3       30.04F
$$

IAZ007>011-017>019-026>030-037>042-050>054-066-042000-
   NORTHEAST IOWA

CITY           SKY/WX    TMP DP  RH WIND       PRES   REMARKS
CEDAR RAPIDS   CLOUDY    77  65  66 W7        30.02S
CHARLES CITY * SUNNY     75  54  46 CALM      30.03F
CLINTON *      PTSUNNY   79  59  50 W10       30.04S HX  80
DECORAH *      SUNNY     75  54  46 VRB5      30.02S
DUBUQUE        MOSUNNY   78  54  43 W15       30.02F
MONTICELLO *   MOSUNNY   79  59  50 VRB6G14   30.02R HX  80
OELWEIN *      SUNNY     77  55  47 VRB6      30.04R
WATERLOO       PTSUNNY   79  55  43 W5        30.01S
$$

IAZ064-065-067-068-078-042000-
   EAST CENTRAL IOWA

CITY           SKY/WX    TMP DP  RH WIND       PRES   REMARKS
DAVENPORT      CLOUDY    78  60  53 W12       30.03R
IOWA CITY      CLOUDY    77  62  59 SW8       30.03F
MT. PLEASANT * CLOUDY    77  59  53 SW3       30.02F
MUSCATINE *    SUNNY     79  61  53 W8        30.03F HX  80
QUAD CITIES    CLOUDY    79  60  52 W12       30.02R HX  80
$$

IAZ062-063-075>077-085>089-095>099-042000-
   SOUTHEAST IOWA

CITY           SKY/WX    TMP DP  RH WIND       PRES   REMARKS
BURLINGTON     CLOUDY    75  64  68 SW6       30.03F
FAIRFIELD *    SUNNY     73  61  64 CALM      30.01F
FORT MADISON * SUNNY     70  63  78 SW3       30.04F
KEOKUK *       CLOUDY    68  66  94 NE6       30.01F
OSKALOOSA *      N/A     75  63  64 E5        30.00F
CENTERVILLE *  SUNNY     70  64  83 SE9       30.01F
OTTUMWA        CLOUDY    74  59  59 E8        29.98F
WASHINGTON *   SUNNY     77  64  65 SW6       30.04F
$$

ABBREVIATIONS USED IN REMARKS
   TC - TEMPERATURES IN CELSIUS
  WCI - WIND CHILL INDEX
   HX - HEAT INDEX
  VSB - VISIBILITY
$$




USA.gov is the U.S. government's official web portal to all federal, state and local government web resources and services.